Time,TemperatureF,DewpointF,PressureIn,WindDirection,WindDirectionDegrees,WindSpeedMPH,WindSpeedGustMPH,Humidity,HourlyPrecipIn,Conditions,Clouds,dailyrainin,SoftwareType,DateUTC
2013-01-14 00:00:00,45.1,44.6,30.07,North,0,7.0,12.0,98,0.04,,SKC,0.02,VWS V13.00,2013-01-14 06:00:00,
2013-01-14 00:30:00,44.7,44.2,30.08,North,0,6.0,11.0,98,0.04,,SKC,0.02,VWS V13.00,2013-01-14 06:30:00,
2013-01-14 01:00:00,44.3,43.8,30.08,North,0,6.0,12.0,98,0.07,,SKC,0.07,VWS V13.00,2013-01-14 07:00:00,
2013-01-14 01:30:00,43.9,43.4,30.08,North,0,6.0,11.0,98,0.07,,SKC,0.09,VWS V13.00,2013-01-14 07:30:00,
2013-01-14 02:00:00,43.4,42.9,30.09,North,0,6.0,12.0,98,0.08,,SKC,0.10,VWS V13.00,2013-01-14 08:00:00,
2013-01-14 02:30:00,43.3,42.8,30.09,NNE,22,6.0,12.0,98,0.03,,SKC,0.10,VWS V13.00,2013-01-14 08:30:00,
2013-01-14 03:00:00,43.3,42.8,30.08,NNE,22,6.0,13.0,98,0.01,,SKC,0.10,VWS V13.00,2013-01-14 09:00:00,
2013-01-14 03:30:00,43.3,42.8,30.08,NNE,22,7.0,12.0,98,0.00,,SKC,0.10,VWS V13.00,2013-01-14 09:30:00,
2013-01-14 04:00:00,43.1,42.3,30.08,NNE,22,8.0,14.0,97,0.01,,SKC,0.11,VWS V13.00,2013-01-14 10:00:00,
2013-01-14 04:30:00,42.9,42.4,30.08,NNE,22,7.0,12.0,98,0.02,,SKC,0.12,VWS V13.00,2013-01-14 10:30:00,
2013-01-14 05:00:00,42.8,42.3,30.09,NNE,22,6.0,11.0,98,0.02,,SKC,0.12,VWS V13.00,2013-01-14 11:00:00,
2013-01-14 05:30:00,42.5,42.0,30.09,NNE,22,7.0,13.0,98,0.03,,SKC,0.14,VWS V13.00,2013-01-14 11:30:00,
2013-01-14 06:00:00,42.4,41.9,30.10,North,0,6.0,13.0,98,0.02,,SKC,0.14,VWS V13.00,2013-01-14 12:00:00,
2013-01-14 06:30:00,42.3,41.8,30.12,NNE,22,6.0,12.0,98,0.02,,SKC,0.14,VWS V13.00,2013-01-14 12:30:00,
2013-01-14 07:00:00,42.2,41.7,30.15,NNE,22,6.0,11.0,98,0.01,,SKC,0.15,VWS V13.00,2013-01-14 13:00:00,
2013-01-14 07:30:00,41.9,41.4,30.15,NNE,22,6.0,11.0,98,0.02,,SKC,0.16,VWS V13.00,2013-01-14 13:30:00,
2013-01-14 08:31:00,41.9,41.4,30.17,NE,42,8.0,8.0,98,0.10,,SKC,0.23,VWS V13.00,2013-01-14 14:31:00,
2013-01-14 08:36:00,41.9,41.4,30.17,NNE,17,5.0,10.0,98,0.09,,SKC,0.23,VWS V13.00,2013-01-14 14:36:00,
2013-01-14 08:41:00,41.9,41.4,30.16,NE,36,9.0,11.0,98,0.10,,SKC,0.24,VWS V13.00,2013-01-14 14:41:00,
2013-01-14 08:46:00,41.9,41.4,30.16,NE,53,8.0,12.0,98,0.10,,SKC,0.24,VWS V13.00,2013-01-14 14:46:00,
2013-01-14 08:51:00,41.9,41.4,30.17,NE,40,7.0,12.0,98,0.11,,SKC,0.26,VWS V13.00,2013-01-14 14:51:00,
2013-01-14 08:56:00,41.9,41.4,30.15,NE,35,8.0,12.0,98,0.13,,SKC,0.27,VWS V13.00,2013-01-14 14:56:00,
2013-01-14 09:01:00,41.9,41.4,30.15,NNE,28,8.0,12.0,98,0.14,,SKC,0.28,VWS V13.00,2013-01-14 15:01:00,
2013-01-14 09:06:00,42.0,41.5,30.16,NE,43,5.0,12.0,98,0.09,,SKC,0.28,VWS V13.00,2013-01-14 15:06:00,
2013-01-14 09:11:00,42.0,41.5,30.16,NNE,13,8.0,12.0,98,0.10,,SKC,0.29,VWS V13.00,2013-01-14 15:11:00,
2013-01-14 09:16:00,42.1,41.6,30.16,NE,56,5.0,12.0,98,0.10,,SKC,0.29,VWS V13.00,2013-01-14 15:16:00,
2013-01-14 09:21:00,42.2,41.7,30.17,NE,46,6.0,12.0,98,0.10,,SKC,0.29,VWS V13.00,2013-01-14 15:21:00,
2013-01-14 09:26:00,42.2,41.7,30.17,NE,44,7.0,12.0,98,0.11,,SKC,0.30,VWS V13.00,2013-01-14 15:26:00,
2013-01-14 09:31:00,42.2,41.4,30.17,NNE,25,3.0,12.0,97,0.12,,SKC,0.31,VWS V13.00,2013-01-14 15:31:00,
2013-01-14 09:36:00,42.2,41.4,30.18,NNE,25,6.0,9.0,97,0.08,,SKC,0.31,VWS V13.00,2013-01-14 15:36:00,
2013-01-14 09:41:00,42.2,41.4,30.17,NE,35,6.0,10.0,97,0.09,,SKC,0.32,VWS V13.00,2013-01-14 15:41:00,
2013-01-14 09:46:00,42.4,41.6,30.18,NE,39,4.0,10.0,97,0.09,,SKC,0.33,VWS V13.00,2013-01-14 15:46:00,
2013-01-14 09:51:00,42.4,41.6,30.18,NNE,26,5.0,10.0,97,0.10,,SKC,0.33,VWS V13.00,2013-01-14 15:51:00,
2013-01-14 09:56:00,42.4,41.6,30.17,NE,53,6.0,11.0,97,0.12,,SKC,0.36,VWS V13.00,2013-01-14 15:56:00,
2013-01-14 10:01:00,42.6,42.1,30.17,NE,51,2.0,11.0,98,0.14,,SKC,0.37,VWS V13.00,2013-01-14 16:01:00,
2013-01-14 10:06:00,42.5,41.7,30.16,ENE,64,5.0,9.0,97,0.10,,SKC,0.38,VWS V13.00,2013-01-14 16:06:00,
2013-01-14 10:11:00,42.5,41.7,30.16,ENE,69,9.0,10.0,97,0.10,,SKC,0.38,VWS V13.00,2013-01-14 16:11:00,
2013-01-14 10:16:00,42.4,41.6,30.15,NE,51,8.0,10.0,97,0.11,,SKC,0.39,VWS V13.00,2013-01-14 16:16:00,
2013-01-14 10:21:00,42.5,42.0,30.15,NE,38,7.0,10.0,98,0.12,,SKC,0.40,VWS V13.00,2013-01-14 16:21:00,
2013-01-14 10:26:00,42.5,41.7,30.15,NNE,15,5.0,11.0,97,0.13,,SKC,0.41,VWS V13.00,2013-01-14 16:26:00,
2013-01-14 10:31:00,42.4,41.9,30.15,NNW,344,7.0,11.0,98,0.14,,SKC,0.42,VWS V13.00,2013-01-14 16:31:00,
2013-01-14 10:36:00,42.4,41.9,30.15,North,9,4.0,7.0,98,0.12,,SKC,0.44,VWS V13.00,2013-01-14 16:36:00,
2013-01-14 10:41:00,42.3,41.8,30.15,NNE,13,7.0,8.0,98,0.15,,SKC,0.46,VWS V13.00,2013-01-14 16:41:00,
2013-01-14 10:46:00,42.3,41.8,30.15,NNE,26,3.0,8.0,98,0.16,,SKC,0.47,VWS V13.00,2013-01-14 16:46:00,
2013-01-14 10:51:00,42.4,41.9,30.14,NE,49,4.0,8.0,98,0.18,,SKC,0.49,VWS V13.00,2013-01-14 16:51:00,
2013-01-14 10:56:00,42.4,41.9,30.14,NE,38,5.0,8.0,98,0.19,,SKC,0.50,VWS V13.00,2013-01-14 16:56:00,
2013-01-14 11:02:00,42.4,41.9,30.14,NE,36,4.0,8.0,98,0.21,,SKC,0.52,VWS V13.00,2013-01-14 17:02:00,
2013-01-14 11:32:00,42.2,41.7,30.12,NNE,20,8.0,13.0,98,0.31,,SKC,0.68,VWS V13.00,2013-01-14 17:32:00,
2013-01-14 12:00:00,42.3,41.8,30.11,NNE,22,5.0,12.0,98,0.40,,SKC,0.82,VWS V13.00,2013-01-14 18:00:00,
2013-01-14 12:30:00,42.4,41.9,30.10,ENE,68,5.0,8.0,98,0.44,,SKC,0.96,VWS V13.00,2013-01-14 18:30:00,
2013-01-14 13:00:00,42.5,42.0,30.10,North,0,3.0,6.0,98,0.37,,SKC,1.05,VWS V13.00,2013-01-14 19:00:00,
2013-01-14 13:30:00,42.8,42.3,30.09,NNE,22,4.0,7.0,98,0.27,,SKC,1.09,VWS V13.00,2013-01-14 19:30:00,
2013-01-14 14:00:00,42.9,42.4,30.09,NNE,22,5.0,9.0,98,0.27,,SKC,1.23,VWS V13.00,2013-01-14 20:00:00,
2013-01-14 14:30:00,42.3,41.8,30.14,North,0,8.0,15.0,98,0.34,,SKC,1.39,VWS V13.00,2013-01-14 20:30:00,
2013-01-14 15:00:00,40.2,39.4,30.17,NNW,338,8.0,15.0,97,0.46,,SKC,1.55,VWS V13.00,2013-01-14 21:00:00,
2013-01-14 15:30:00,38.5,38.0,30.17,North,0,7.0,13.0,98,0.37,,SKC,1.60,VWS V13.00,2013-01-14 21:30:00,
2013-01-14 16:00:00,38.0,37.5,30.19,North,0,7.0,12.0,98,0.24,,SKC,1.63,VWS V13.00,2013-01-14 22:00:00,
2013-01-14 16:28:00,38.0,37.5,30.19,North,0,7.0,12.0,98,0.24,,SKC,1.63,VWS V13.00,2013-01-14 22:28:00,
2013-01-14 16:33:00,38.1,37.6,30.22,North,355,7.0,8.0,98,0.08,,SKC,1.63,VWS V13.00,2013-01-14 22:33:00,
2013-01-14 16:38:00,38.0,37.5,30.22,North,5,6.0,10.0,98,0.03,,SKC,1.63,VWS V13.00,2013-01-14 22:38:00,
2013-01-14 16:43:00,37.9,37.4,30.22,North,360,7.0,10.0,98,0.04,,SKC,1.64,VWS V13.00,2013-01-14 22:43:00,
2013-01-14 16:48:00,37.9,37.4,30.22,NNE,15,10.0,11.0,98,0.05,,SKC,1.65,VWS V13.00,2013-01-14 22:48:00,
2013-01-14 16:53:00,37.8,37.3,30.23,NNW,345,3.0,13.0,98,0.06,,SKC,1.66,VWS V13.00,2013-01-14 22:53:00,
2013-01-14 16:57:00,37.8,37.3,30.24,North,5,5.0,13.0,98,0.09,,SKC,1.69,VWS V13.00,2013-01-14 22:57:00,
2013-01-14 17:02:00,37.7,37.2,30.22,NNE,21,6.0,10.0,98,0.13,,SKC,1.73,VWS V13.00,2013-01-14 23:02:00,
2013-01-14 17:07:00,37.5,37.0,30.22,NNE,24,7.0,11.0,98,0.12,,SKC,1.75,VWS V13.00,2013-01-14 23:07:00,
2013-01-14 17:12:00,37.4,36.9,30.22,NE,42,8.0,11.0,98,0.14,,SKC,1.77,VWS V13.00,2013-01-14 23:12:00,
2013-01-14 17:17:00,37.3,36.8,30.23,NE,44,5.0,11.0,98,0.17,,SKC,1.80,VWS V13.00,2013-01-14 23:17:00,
2013-01-14 17:22:00,37.3,36.8,30.23,North,9,4.0,11.0,98,0.18,,SKC,1.81,VWS V13.00,2013-01-14 23:22:00,
2013-01-14 17:27:00,37.3,36.8,30.23,NE,47,9.0,11.0,98,0.20,,SKC,1.83,VWS V13.00,2013-01-14 23:27:00,
2013-01-14 17:32:00,37.3,36.8,30.23,NE,42,5.0,8.0,98,0.21,,SKC,1.84,VWS V13.00,2013-01-14 23:32:00,
2013-01-14 17:37:00,37.4,36.9,30.22,North,9,9.0,10.0,98,0.22,,SKC,1.85,VWS V13.00,2013-01-14 23:37:00,
2013-01-14 17:42:00,37.5,37.0,30.23,NNE,21,9.0,11.0,98,0.22,,SKC,1.85,VWS V13.00,2013-01-14 23:42:00,
2013-01-14 17:47:00,37.6,37.1,30.22,NE,37,8.0,13.0,98,0.22,,SKC,1.85,VWS V13.00,2013-01-14 23:47:00,
2013-01-14 17:52:00,37.8,37.3,30.22,NE,43,5.0,13.0,98,0.22,,SKC,1.85,VWS V13.00,2013-01-14 23:52:00,
2013-01-14 17:57:00,37.9,37.4,30.22,NE,47,9.0,13.0,98,0.22,,SKC,1.85,VWS V13.00,2013-01-14 23:57:00,
2013-01-14 18:02:00,37.9,37.1,30.23,NE,40,6.0,10.0,97,0.22,,SKC,1.85,VWS V13.00,2013-01-15 00:02:00,
2013-01-14 18:07:00,37.9,37.1,30.22,NE,51,10.0,12.0,97,0.12,,SKC,1.85,VWS V13.00,2013-01-15 00:07:00,
2013-01-14 18:12:00,37.8,37.0,30.22,NE,51,10.0,13.0,97,0.13,,SKC,1.86,VWS V13.00,2013-01-15 00:12:00,
2013-01-14 18:17:00,37.8,37.0,30.24,NNE,16,5.0,13.0,97,0.13,,SKC,1.86,VWS V13.00,2013-01-15 00:17:00,
2013-01-14 18:22:00,37.7,36.9,30.23,NNE,20,8.0,13.0,97,0.13,,SKC,1.86,VWS V13.00,2013-01-15 00:22:00,
2013-01-14 18:27:00,37.7,36.9,30.23,NNE,27,5.0,13.0,97,0.14,,SKC,1.87,VWS V13.00,2013-01-15 00:27:00,
2013-01-14 18:32:00,37.6,36.8,30.23,NE,47,7.0,13.0,97,0.14,,SKC,1.87,VWS V13.00,2013-01-15 00:32:00,
2013-01-14 18:37:00,37.7,37.2,30.22,NE,45,7.0,10.0,98,0.03,,SKC,1.87,VWS V13.00,2013-01-15 00:37:00,
2013-01-14 18:42:00,37.6,36.8,30.22,NE,41,8.0,11.0,97,0.03,,SKC,1.87,VWS V13.00,2013-01-15 00:42:00,
2013-01-14 18:47:00,37.6,37.1,30.21,NNE,32,6.0,12.0,98,0.04,,SKC,1.88,VWS V13.00,2013-01-15 00:47:00,
2013-01-14 18:52:00,37.6,37.1,30.21,NE,46,9.0,12.0,98,0.04,,SKC,1.88,VWS V13.00,2013-01-15 00:52:00,
2013-01-14 18:57:00,37.7,37.2,30.21,NE,49,7.0,12.0,98,0.04,,SKC,1.88,VWS V13.00,2013-01-15 00:57:00,
2013-01-14 19:02:00,37.8,37.0,30.20,ENE,62,8.0,8.0,97,0.04,,SKC,1.88,VWS V13.00,2013-01-15 01:02:00,
2013-01-14 19:07:00,37.7,36.9,30.20,NE,51,9.0,13.0,97,0.03,,SKC,1.88,VWS V13.00,2013-01-15 01:07:00,
2013-01-14 19:12:00,37.7,36.9,30.21,ENE,63,6.0,13.0,97,0.03,,SKC,1.88,VWS V13.00,2013-01-15 01:12:00,
2013-01-14 19:17:00,37.7,36.9,30.21,ENE,59,7.0,13.0,97,0.04,,SKC,1.89,VWS V13.00,2013-01-15 01:17:00,
2013-01-14 19:22:00,37.7,36.9,30.21,ENE,62,8.0,13.0,97,0.04,,SKC,1.90,VWS V13.00,2013-01-15 01:22:00,
2013-01-14 19:27:00,37.7,36.9,30.20,NNE,24,6.0,13.0,97,0.08,,SKC,1.93,VWS V13.00,2013-01-15 01:27:00,
2013-01-14 19:32:00,37.4,36.6,30.20,NE,55,8.0,8.0,97,0.10,,SKC,1.95,VWS V13.00,2013-01-15 01:32:00,
2013-01-14 19:37:00,37.4,36.6,30.20,NNE,25,5.0,10.0,97,0.09,,SKC,1.96,VWS V13.00,2013-01-15 01:37:00,
2013-01-14 19:42:00,37.3,36.5,30.20,NE,45,6.0,10.0,97,0.12,,SKC,1.99,VWS V13.00,2013-01-15 01:42:00,
2013-01-14 19:47:00,37.3,36.8,30.21,North,5,2.0,10.0,98,0.13,,SKC,2.00,VWS V13.00,2013-01-15 01:47:00,
2013-01-14 19:52:00,37.2,36.7,30.23,NNW,345,4.0,10.0,98,0.14,,SKC,2.01,VWS V13.00,2013-01-15 01:52:00,
2013-01-14 19:57:00,37.1,36.6,30.23,North,350,4.0,10.0,98,0.16,,SKC,2.03,VWS V13.00,2013-01-15 01:57:00,
2013-01-14 20:02:00,37.0,36.5,30.22,NE,39,4.0,5.0,98,0.18,,SKC,2.05,VWS V13.00,2013-01-15 02:02:00,
2013-01-14 20:07:00,37.0,36.5,30.20,NE,38,6.0,8.0,98,0.19,,SKC,2.07,VWS V13.00,2013-01-15 02:07:00,
2013-01-14 20:12:00,37.1,36.6,30.20,ENE,71,6.0,8.0,98,0.20,,SKC,2.08,VWS V13.00,2013-01-15 02:12:00,
2013-01-14 20:17:00,37.2,36.7,30.19,ENE,65,5.0,8.0,98,0.21,,SKC,2.09,VWS V13.00,2013-01-15 02:17:00,
2013-01-14 20:22:00,37.3,36.8,30.19,ENE,65,6.0,8.0,98,0.21,,SKC,2.09,VWS V13.00,2013-01-15 02:22:00,
2013-01-14 20:27:00,37.3,36.8,30.18,ENE,78,7.0,9.0,98,0.22,,SKC,2.10,VWS V13.00,2013-01-15 02:27:00,
2013-01-14 20:32:00,37.5,37.0,30.18,ENE,78,8.0,8.0,98,0.23,,SKC,2.11,VWS V13.00,2013-01-15 02:32:00,
2013-01-14 20:37:00,37.7,37.2,30.18,ENE,69,6.0,9.0,98,0.16,,SKC,2.11,VWS V13.00,2013-01-15 02:37:00,
2013-01-14 20:42:00,37.8,37.3,30.17,ENE,74,4.0,9.0,98,0.17,,SKC,2.12,VWS V13.00,2013-01-15 02:42:00,
2013-01-14 20:47:00,38.0,37.5,30.18,NE,39,4.0,9.0,98,0.17,,SKC,2.12,VWS V13.00,2013-01-15 02:47:00,
2013-01-14 20:52:00,38.0,37.5,30.17,NE,46,6.0,9.0,98,0.18,,SKC,2.13,VWS V13.00,2013-01-15 02:52:00,
2013-01-14 20:57:00,38.0,37.5,30.18,NNE,24,3.0,9.0,98,0.19,,SKC,2.14,VWS V13.00,2013-01-15 02:57:00,
2013-01-14 21:02:00,38.1,37.6,30.17,NNE,22,4.0,9.0,98,0.20,,SKC,2.15,VWS V13.00,2013-01-15 03:02:00,
2013-01-14 21:07:00,38.1,37.6,30.17,NNE,32,6.0,8.0,98,0.10,,SKC,2.15,VWS V13.00,2013-01-15 03:07:00,
2013-01-14 21:12:00,38.1,37.6,30.17,ENE,59,4.0,8.0,98,0.11,,SKC,2.16,VWS V13.00,2013-01-15 03:12:00,
2013-01-14 21:17:00,38.2,37.7,30.17,NE,40,5.0,8.0,98,0.12,,SKC,2.17,VWS V13.00,2013-01-15 03:17:00,
2013-01-14 21:22:00,38.3,37.8,30.16,ENE,59,7.0,9.0,98,0.12,,SKC,2.17,VWS V13.00,2013-01-15 03:22:00,
2013-01-14 21:27:00,38.4,37.9,30.15,NE,55,10.0,10.0,98,0.12,,SKC,2.17,VWS V13.00,2013-01-15 03:27:00,
2013-01-14 21:32:00,38.5,38.0,30.15,NE,47,7.0,10.0,98,0.13,,SKC,2.18,VWS V13.00,2013-01-15 03:32:00,
2013-01-14 21:37:00,38.6,38.1,30.15,ENE,65,6.0,8.0,98,0.07,,SKC,2.18,VWS V13.00,2013-01-15 03:37:00,
2013-01-14 21:42:00,38.6,38.1,30.15,NE,55,6.0,9.0,98,0.07,,SKC,2.18,VWS V13.00,2013-01-15 03:42:00,
2013-01-14 21:47:00,38.6,38.1,30.14,East,88,5.0,9.0,98,0.07,,SKC,2.18,VWS V13.00,2013-01-15 03:47:00,
2013-01-14 21:52:00,38.7,38.2,30.13,East,90,6.0,9.0,98,0.07,,SKC,2.18,VWS V13.00,2013-01-15 03:52:00,
2013-01-14 21:57:00,38.8,38.3,30.13,ENE,69,5.0,9.0,98,0.08,,SKC,2.19,VWS V13.00,2013-01-15 03:57:00,
2013-01-14 22:02:00,38.8,38.3,30.14,ENE,78,4.0,9.0,98,0.08,,SKC,2.19,VWS V13.00,2013-01-15 04:02:00,
2013-01-14 22:07:00,38.9,38.4,30.15,NNE,30,6.0,6.0,98,0.04,,SKC,2.19,VWS V13.00,2013-01-15 04:07:00,
2013-01-14 22:12:00,39.0,38.5,30.14,NE,36,6.0,6.0,98,0.04,,SKC,2.19,VWS V13.00,2013-01-15 04:12:00,
2013-01-14 22:17:00,39.1,38.6,30.13,ENE,57,6.0,8.0,98,0.04,,SKC,2.19,VWS V13.00,2013-01-15 04:17:00,
2013-01-14 22:22:00,39.1,38.6,30.13,NE,46,5.0,8.0,98,0.04,,SKC,2.19,VWS V13.00,2013-01-15 04:22:00,
2013-01-14 22:27:00,39.1,38.6,30.14,NE,44,6.0,8.0,98,0.04,,SKC,2.19,VWS V13.00,2013-01-15 04:27:00,
2013-01-14 22:32:00,39.2,38.7,30.14,NE,52,2.0,8.0,98,0.05,,SKC,2.20,VWS V13.00,2013-01-15 04:32:00,
2013-01-14 22:37:00,39.3,38.8,30.14,NE,36,1.0,4.0,98,0.02,,SKC,2.20,VWS V13.00,2013-01-15 04:37:00,
2013-01-14 22:42:00,39.3,38.8,30.14,NNE,31,4.0,5.0,98,0.02,,SKC,2.20,VWS V13.00,2013-01-15 04:42:00,
2013-01-14 22:47:00,39.3,38.8,30.13,ENE,65,6.0,6.0,98,0.02,,SKC,2.20,VWS V13.00,2013-01-15 04:47:00,
2013-01-14 22:52:00,39.5,39.0,30.13,ENE,69,4.0,6.0,98,0.02,,SKC,2.20,VWS V13.00,2013-01-15 04:52:00,
2013-01-14 22:57:00,39.5,39.0,30.12,East,92,6.0,6.0,98,0.02,,SKC,2.20,VWS V13.00,2013-01-15 04:57:00,
2013-01-14 23:00:00,39.5,39.0,30.10,East,86,5.0,8.0,98,0.02,,SKC,2.20,VWS V13.00,2013-01-15 05:00:00,
2013-01-14 23:01:00,39.5,39.0,30.10,ESE,103,6.0,8.0,98,0.02,,SKC,2.20,VWS V13.00,2013-01-15 05:01:00,
2013-01-14 23:06:00,39.6,39.1,30.12,ENE,74,0.0,6.0,98,0.01,,SKC,2.20,VWS V13.00,2013-01-15 05:06:00,
2013-01-14 23:11:00,39.7,39.2,30.11,East,93,5.0,6.0,98,0.01,,SKC,2.20,VWS V13.00,2013-01-15 05:11:00,
2013-01-14 23:16:00,39.7,39.2,30.10,ESE,105,5.0,6.0,98,0.01,,SKC,2.20,VWS V13.00,2013-01-15 05:16:00,
2013-01-14 23:21:00,39.8,39.3,30.11,ENE,61,3.0,6.0,98,0.01,,SKC,2.20,VWS V13.00,2013-01-15 05:21:00,
2013-01-14 23:26:00,39.9,39.4,30.12,ENE,71,2.0,6.0,98,0.01,,SKC,2.20,VWS V13.00,2013-01-15 05:26:00,
2013-01-14 23:31:00,40.0,39.5,30.11,ENE,67,3.0,6.0,98,0.01,,SKC,2.20,VWS V13.00,2013-01-15 05:31:00,
2013-01-14 23:36:00,40.1,39.6,30.11,NE,38,4.0,6.0,98,0.00,,SKC,2.20,VWS V13.00,2013-01-15 05:36:00,
2013-01-14 23:41:00,40.2,39.7,30.10,NE,45,4.0,6.0,98,0.00,,SKC,2.20,VWS V13.00,2013-01-15 05:41:00,
2013-01-14 23:46:00,40.3,39.8,30.10,NE,53,2.0,6.0,98,0.00,,SKC,2.20,VWS V13.00,2013-01-15 05:46:00,
2013-01-14 23:51:00,40.4,39.9,30.11,NE,53,0.0,6.0,98,0.00,,SKC,2.20,VWS V13.00,2013-01-15 05:51:00,
2013-01-14 23:56:00,40.4,39.9,30.11,NE,39,2.0,6.0,98,0.00,,SKC,2.20,VWS V13.00,2013-01-15 05:56:00,